Find GREB 6

NORAD ID: 1271 Int'l Des: 1965-016 Owner: NRO/NRL Country: US operational
LEOCIRCULAR

Live-Position

3D-Globus wird geladen...

Über GREB 6

Beschreibung wird geladen...

Nächste Überflüge

Passes for default location (London). Set your location on the main map for personalized predictions.

Höhenverlauf

Loading altitude history...

Zweizeiliger Elementsatz

1 1271U 65016A 26106.81077161 .00000014 00000-0 47865-4 0 9994
2 1271 70.0785 288.9668 0019765 156.9858 215.4630 13.96649863110241
Epoch: 16. Apr. 2026 • Age: 7 hours

Aktueller Status

Höhe 938.3 km
Geschwindigkeit 7.38 km/s
Subsatellitenpunkt -59.29°S, 16.41°E
Typ other

Most Searched